EW1179 Weather Reports


Display with metric or nautical units.
time (UTC)temp
F
wind
direction
speed
MPH
gust
MPH
rain 1hr
in
rain 24hr
in
rain mn
in
humidity
%
barometer
mb
20260504010014 57 191 0.0 4.0 0.00 0.00 0.00 66 1011.8
20260504004513 57 284 0.0 3.0 0.00 0.00 0.00 65 1011.6
20260504003022 57 269 0.0 6.0 0.00 0.00 0.00 65 1011.6
20260504001512 58 232 1.0 6.0 0.00 0.00 0.00 64 1011.5
20260504000012 60 249 0.0 6.0 0.00 0.00 0.00 61 1011.3
20260503234511 60 275 0.0 4.0 0.00 0.00 0.00 59 1011.2
20260503233011 61 292 0.0 4.0 0.00 0.00 0.00 57 1011.2
20260503231510 60 237 1.0 11.0 0.00 0.00 0.00 56 1011.1
20260503230010 61 227 0.0 8.0 0.00 0.00 0.00 55 1011.2
20260503224516 62 234 2.0 6.0 0.00 0.00 0.00 53 1011.2
20260503223008 63 230 2.0 10.0 0.00 0.00 0.00 52 1011.1
20260503221508 63 247 2.0 8.0 0.00 0.00 0.00 52 1011.2
20260503220016 63 279 3.0 7.0 0.00 0.00 0.00 54 1011.2
20260503214507 63 234 1.0 7.0 0.00 0.00 0.00 55 1011.4
20260503213006 64 252 1.0 6.0 0.00 0.00 0.00 54 1011.5
20260503211506 64 253 1.0 6.0 0.00 0.00 0.00 53 1011.3
20260503210005 64 215 0.0 5.0 0.00 0.00 0.00 54 1011.4
20260503204503 64 273 0.0 6.0 0.00 0.00 0.00 54 1011.5
20260503203002 64 284 0.0 6.0 0.00 0.00 0.00 56 1011.7
20260503201501 64 232 1.0 4.0 0.00 0.00 0.00 54 1011.7
20260503200100 63 300 0.0 6.0 0.00 0.00 0.00 54 1011.6
20260503194601 62 236 2.0 7.0 0.00 0.00 0.00 57 1012.0
20260503193055 62 247 2.0 8.0 0.00 0.00 0.00 59 1012.1
20260503191551 60 250 1.0 6.0 0.00 0.00 0.00 62 1012.1
20260503190055 60 202 0.0 4.0 0.00 0.00 0.00 62 1012.3
20260503184605 59 184 0.0 7.0 0.00 0.00 0.00 64 1012.3
20260503183052 60 200 0.0 4.0 0.00 0.00 0.00 64 1012.4
20260503181550 58 207 0.0 3.0 0.00 0.00 0.00 70 1012.5
20260503180040 57 207 0.0 3.0 0.00 0.00 0.00 73 1012.6
20260503174535 55 212 0.0 6.0 0.00 0.00 0.00 77 1012.5
20260503173035 54 212 0.0 5.0 0.00 0.00 0.00 80 1012.6
20260503171537 53 312 0.0 5.0 0.00 0.00 0.00 85 1012.6
20260503081537 52 323 0.0 0.0 0.00 0.00 0.00 84 1010.7
20260503071540 52 190 0.0 3.0 0.00 0.00 0.00 85 1010.5
20260503054527 52 305 0.0 0.0 0.00 0.00 0.00 88 1010.1
20260503053033 52 254 0.0 0.0 0.00 0.00 0.00 88 1010.0
20260503051523 52 207 0.0 0.0 0.00 0.00 0.00 87 1009.8
20260503050024 52 92 0.0 1.0 0.00 0.00 0.00 87 1009.7
20260503044541 52 202 0.0 0.0 0.00 0.00 0.00 87 1009.4
20260503043037 52 11 0.0 0.0 0.00 0.00 0.00 87 1009.1
20260503041520 52 9 0.0 0.0 0.00 0.00 0.00 86 1009.2
20260503040020 52 355 0.0 0.0 0.00 0.00 0.00 86 1009.2
20260503034519 52 5 0.0 0.0 0.00 0.00 0.00 85 1009.2
20260503033020 52 27 0.0 1.0 0.00 0.00 0.00 85 1009.2
20260503031526 52 284 0.0 0.0 0.00 0.00 0.00 85 1009.3
20260503030019 53 221 0.0 3.0 0.00 0.00 0.00 84 1009.0
20260503024517 53 229 0.0 2.0 0.00 0.00 0.00 83 1008.9
20260503023017 54 255 0.0 5.0 0.00 0.00 0.00 81 1008.8
20260503021517 55 263 0.0 3.0 0.00 0.00 0.00 78 1008.8
20260503020017 57 267 0.0 5.0 0.00 0.00 0.00 75 1008.7
20260503014515 58 237 0.0 2.0 0.00 0.00 0.00 72 1008.6
20260503013015 60 327 0.0 2.0 0.00 0.00 0.00 70 1008.4
20260503011515 60 205 0.0 5.0 0.00 0.00 0.00 69 1008.5